QPF
0.00 0.00 0.00 0.00 0.00 0.00 0.00 0.00 0.00 0.00 0.00 0.00 0.00 0.00 0.00 0.00 0.00 0.00 0.00 0.00 0.00 0.00 0.00 0.00 0.00 0.00 0.00 0.00 0.00 0.00 0.00 0.00 0.00 0.00 0.00 0.00 0.00 0.00 0.00 0.00 0.00 0.00 0.00 0.00
0.00 0.00 0.00 0.00 0.00 0.00 0.00 0.00 0.00 0.00 0.00 0.01 0.00 0.00 0.00 0.00 0.00 0.00 0.00 0.00 0.00 0.00 0.00 0.00 0.00 0.00 0.00 0.00 0.00 0.00 0.00 0.00 0.00 0.00 0.00 0.00 0.00 0.00 0.00 0.00 0.00 0.00 0.00 0.00
0.00 0.00 0.00 0.00 0.00 0.00 0.00 0.00 0.00 0.00 0.00 0.00 0.00 0.00 0.00 0.00 0.00 0.00 0.00 0.00 0.00 0.00 0.00 0.00 0.00 0.00 0.00 0.00 0.00 0.00 0.00 0.00 0.00 0.00 0.00 0.00 0.00 0.00 0.00 0.00 0.00 0.00 0.00 0.00
0.00 0.00 0.00 0.00 0.00 0.00 0.00 0.00 0.00 0.00 0.00 0.00 0.03 0.01 0.00 0.00 0.00 0.00 0.00 0.00 0.00 0.00 0.00 0.00 0.00 0.00 0.00 0.00 0.00 0.00 0.00 0.00 0.00 0.00 0.00 0.00 0.00 0.00 0.00 0.00 0.00 0.00 0.00 0.00
0.00 0.00 0.00 0.00 0.00 0.00 0.00 0.00 0.00 0.01 0.01 0.01 0.00 0.01 0.00 0.00 0.00 0.00 0.00 0.00 0.00 0.00 0.00 0.00 0.00 0.00 0.00 0.00 0.00 0.00 0.00 0.00 0.00 0.00 0.00 0.00 0.00 0.00 0.00 0.00 0.00 0.00 0.00 0.00
0.00 0.00 0.00 0.00 0.00 0.00 0.00 0.00 0.00 0.01 0.03 0.02 0.00 0.01 0.00 0.00 0.00 0.00 0.00 0.00 0.00 0.00 0.00 0.00 0.00 0.00 0.00 0.00 0.00 0.00 0.00 0.00 0.00 0.00 0.00 0.00 0.00 0.00 0.00 0.00 0.00 0.00 0.00 0.00
0.00 0.00 0.00 0.00 0.00 0.00 0.01 0.02 0.01 0.01 0.01 0.00 0.00 0.00 0.00 0.00 0.00 0.00 0.00 0.00 0.00 0.00 0.00 0.00 0.00 0.00 0.00 0.00 0.00 0.00 0.00 0.00 0.00 0.00 0.00 0.00 0.00 0.00 0.00 0.00 0.00 0.00 0.00 0.00
0.00 0.00 0.00 0.00 0.00 0.00 0.00 0.01 0.00 0.00 0.00 0.00 0.01 0.00 0.00 0.00 0.00 0.00 0.00 0.00 0.00 0.00 0.00 0.00 0.00 0.00 0.00 0.00 0.00 0.00 0.00 0.00 0.00 0.00 0.00 0.00 0.00 0.00 0.00 0.00 0.00 0.00 0.00 0.00
0.00 0.00 0.00 0.00 0.00 0.01 0.02 0.03 0.00 0.01 0.02 0.02 0.01 0.00 0.00 0.00 0.00 0.00 0.00 0.00 0.00 0.00 0.00 0.00 0.00 0.00 0.00 0.00 0.00 0.00 0.00 0.00 0.00 0.00 0.00 0.00 0.00 0.00 0.00 0.00 0.00 0.00 0.00 0.00
0.00 0.00 0.00 0.00 0.00 0.00 0.01 0.02 0.00 0.01 0.02 0.01 0.00 0.00 0.00 0.00 0.00 0.00 0.00 0.00 0.00 0.00 0.00 0.00 0.00 0.00 0.00 0.00 0.00 0.00 0.00 0.00 0.00 0.00 0.00 0.00 0.00 0.00 0.00 0.00 0.00 0.00 0.00 0.00
0.00 0.00 0.00 0.00 0.00 0.00 0.00 0.03 0.02 0.01 0.00 0.02 0.00 0.00 0.00 0.00 0.00 0.01 0.00 0.00 0.00 0.00 0.00 0.00 0.00 0.00 0.00 0.00 0.00 0.00 0.00 0.00 0.00 0.00 0.00 0.00 0.00 0.00 0.00 0.00 0.00 0.00 0.00 0.00
0.00 0.00 0.00 0.00 0.00 0.02 0.00 0.01 0.00 0.01 0.00 0.00 0.00 0.00 0.01 0.00 0.00 0.01 0.01 0.00 0.00 0.00 0.00 0.00 0.00 0.00 0.00 0.00 0.00 0.00 0.00 0.00 0.00 0.00 0.00 0.00 0.00 0.00 0.00 0.00 0.00 0.00 0.00 0.00
0.00 0.00 0.00 0.01 0.01 0.02 0.02 0.00 0.01 0.00 0.00 0.00 0.00 0.00 0.00 0.00 0.00 0.00 0.00 0.00 0.00 0.00 0.00 0.00 0.00 0.00 0.00 0.00 0.00 0.00 0.00 0.00 0.00 0.00 0.00 0.00 0.00 0.00 0.00 0.00 0.00 0.00 0.00 0.00
0.00 0.00 0.00 0.00 0.01 0.02 0.00 0.00 0.01 0.01 0.00 0.00 0.00 0.00 0.00 0.00 0.00 0.00 0.00 0.00 0.00 0.00 0.00 0.00 0.00 0.00 0.00 0.00 0.00 0.00 0.00 0.00 0.00 0.00 0.00 0.00 0.00 0.00 0.00 0.00 0.00 0.00 0.00 0.00
0.00 0.00 0.00 0.00 0.00 0.00 0.00 0.00 0.00 0.00 0.00 0.00 0.00 0.00 0.00 0.00 0.00 0.00 0.00 0.00 0.00 0.00 0.00 0.00 0.00 0.00 0.00 0.00 0.00 0.00 0.00 0.00 0.00 0.00 0.00 0.00 0.00 0.00 0.00 0.00 0.00 0.00 0.00 0.00
0.00 0.00 0.00 0.00 0.00 0.00 0.00 0.00 0.00 0.00 0.00 0.00 0.00 0.00 0.00 0.00 0.00 0.00 0.00 0.00 0.00 0.00 0.00 0.00 0.00 0.00 0.00 0.00 0.00 0.00 0.00 0.00 0.00 0.00 0.00 0.00 0.00 0.00 0.00 0.00 0.00 0.00 0.00 0.00
0.00 0.00 0.00 0.00 0.00 0.00 0.00 0.00 0.00 0.00 0.00 0.00 0.00 0.00 0.00 0.00 0.00 0.00 0.00 0.00 0.00 0.00 0.00 0.00 0.00 0.00 0.00 0.00 0.00 0.00 0.00 0.00 0.00 0.00 0.00 0.00 0.00 0.00 0.00 0.00 0.00 0.00 0.00 0.00
0.00 0.00 0.00 0.00 0.00 0.00 0.00 0.00 0.00 0.00 0.00 0.00 0.00 0.00 0.00 0.00 0.00 0.00 0.00 0.00 0.00 0.00 0.00 0.00 0.00 0.00 0.00 0.00 0.00 0.00 0.00 0.00 0.00 0.00 0.00 0.00 0.00 0.00 0.00 0.00 0.00 0.00 0.00 0.00
0.00 0.00 0.00 0.00 0.00 0.00 0.00 0.00 0.00 0.00 0.00 0.00 0.00 0.00 0.00 0.00 0.00 0.00 0.00 0.00 0.00 0.00 0.00 0.00 0.00 0.00 0.00 0.00 0.00 0.00 0.00 0.00 0.00 0.00 0.00 0.00 0.00 0.00 0.00 0.00 0.00 0.00 0.00 0.00
0.00 0.00 0.00 0.00 0.00 0.00 0.00 0.00 0.00 0.00 0.00 0.00 0.00 0.00 0.00 0.00 0.00 0.00 0.00 0.00 0.00 0.00 0.00 0.00 0.00 0.00 0.00 0.00 0.00 0.00 0.00 0.00 0.00 0.00 0.00 0.00 0.00 0.00 0.00 0.00 0.00 0.00 0.00 0.00
0.00 0.00 0.00 0.00 0.00 0.00 0.00 0.00 0.00 0.00 0.00 0.00 0.00 0.00 0.00 0.00 0.00 0.00 0.00 0.00 0.00 0.00 0.00 0.00 0.00 0.00 0.00 0.00 0.00 0.00 0.00 0.00 0.00 0.00 0.00 0.00 0.00 0.00 0.00 0.00 0.00 0.00 0.00 0.00
0.00 0.00 0.00 0.00 0.00 0.00 0.00 0.00 0.00 0.00 0.00 0.00 0.00 0.00 0.00 0.00 0.00 0.00 0.00 0.00 0.00 0.00 0.00 0.00 0.00 0.00 0.00 0.00 0.00 0.00 0.00 0.00 0.00 0.00 0.00 0.00 0.00 0.00 0.00 0.00 0.00 0.00 0.00 0.00
0.00 0.00 0.00 0.00 0.00 0.00 0.00 0.00 0.00 0.00 0.00 0.00 0.00 0.00 0.00 0.00 0.00 0.00 0.00 0.00 0.00 0.00 0.00 0.00 0.00 0.00 0.00 0.00 0.00 0.00 0.00 0.00 0.00 0.00 0.00 0.00 0.00 0.00 0.00 0.00 0.00 0.00 0.00 0.00
0.00 0.00 0.00 0.00 0.00 0.00 0.00 0.00 0.00 0.00 0.00 0.00 0.00 0.00 0.00 0.00 0.00 0.00 0.00 0.00 0.00 0.00 0.00 0.00 0.00 0.00 0.00 0.00 0.00 0.00 0.00 0.00 0.00 0.00 0.00 0.00 0.00 0.00 0.00 0.00 0.00 0.00 0.00 0.00
0.00 0.00 0.00 0.00 0.00 0.00 0.00 0.00 0.00 0.00 0.00 0.00 0.00 0.00 0.00 0.00 0.00 0.00 0.00 0.00 0.00 0.00 0.00 0.00 0.00 0.00 0.00 0.00 0.00 0.00 0.00 0.00 0.00 0.00 0.00 0.00 0.00 0.00 0.00 0.00 0.00 0.00 0.00 0.00
0.00 0.00 0.00 0.00 0.00 0.00 0.00 0.00 0.00 0.00 0.00 0.00 0.00 0.00 0.00 0.00 0.00 0.00 0.00 0.00 0.00 0.00 0.00 0.00 0.00 0.00 0.00 0.00 0.00 0.00 0.00 0.00 0.00 0.00 0.00 0.00 0.00 0.00 0.00 0.00 0.00 0.00 0.00 0.00
MSLP
1014.22 1014.67 1014.36 1014.52 1014.42 1014.37 1014.24 1013.79 1013.15 1012.84 1012.14 1011.47 1010.23 1008.79 1008.15 1007.89 1007.33 1007.21 1007.06 1007.34 1007.55 1007.84 1007.88 1007.87 1007.67 1007.80 1007.92 1008.09 1008.24 1008.65 1009.07 1009.54 1009.72 1010.69 1011.64 1012.34 1013.25 1013.81 1014.01 1014.44 1014.76 1015.10 1015.37 1015.57
1014.95 1014.10 1014.13 1014.24 1014.50 1014.59 1014.52 1014.07 1013.21 1013.16 1012.61 1011.71 1010.55 1008.78 1008.05 1006.96 1006.17 1006.49 1006.35 1006.83 1007.16 1007.77 1008.25 1007.95 1007.90 1008.06 1008.16 1008.37 1008.67 1008.97 1009.29 1009.73 1010.11 1010.61 1011.68 1012.41 1013.29 1014.24 1014.66 1015.07 1015.44 1015.61 1015.76 1015.85
1014.20 1013.74 1013.61 1013.95 1014.17 1014.42 1014.07 1013.81 1013.91 1013.65 1012.97 1011.43 1011.04 1008.40 1007.56 1006.01 1005.79 1005.62 1005.32 1005.75 1006.34 1006.91 1007.72 1008.02 1008.25 1008.31 1008.58 1008.79 1009.04 1009.25 1009.60 1010.03 1010.45 1010.98 1011.95 1012.98 1013.83 1014.54 1015.20 1015.82 1016.04 1016.23 1016.22 1016.29
1013.98 1013.90 1013.57 1013.53 1013.70 1014.00 1013.27 1013.36 1013.66 1013.63 1013.53 1012.34 1010.96 1008.35 1006.42 1005.35 1004.89 1004.90 1004.73 1005.50 1005.83 1006.62 1007.25 1007.90 1008.35 1008.63 1008.65 1009.06 1009.32 1009.60 1009.79 1010.26 1010.83 1011.27 1012.10 1012.89 1013.71 1014.82 1015.68 1016.00 1016.32 1016.64 1016.60 1016.72
1013.14 1013.06 1013.14 1013.07 1012.73 1013.21 1013.02 1013.23 1013.33 1013.35 1013.06 1012.59 1010.87 1010.27 1005.73 1005.48 1004.13 1003.47 1003.43 1004.45 1005.00 1005.70 1006.39 1007.49 1008.14 1008.42 1008.79 1009.08 1009.54 1010.00 1010.22 1010.60 1011.18 1011.64 1012.25 1013.11 1014.13 1014.96 1015.73 1016.19 1016.63 1016.88 1017.12 1017.09
1012.83 1012.64 1012.50 1011.82 1011.92 1012.44 1012.78 1013.23 1013.33 1013.26 1013.11 1011.37 1008.90 1009.34 1004.80 1004.11 1002.96 1002.76 1002.96 1003.52 1004.29 1005.38 1006.45 1007.49 1008.35 1008.76 1009.23 1009.35 1009.89 1010.44 1010.67 1011.26 1011.60 1012.02 1012.63 1013.44 1014.40 1015.34 1016.02 1016.63 1017.03 1017.24 1017.38 1017.44
1012.69 1012.53 1012.50 1011.96 1011.85 1012.16 1012.78 1013.35 1013.28 1013.10 1012.39 1009.32 1007.83 1007.63 1004.37 1002.87 1002.23 1001.56 1001.66 1002.73 1003.85 1004.97 1006.11 1007.31 1008.30 1008.94 1009.49 1009.80 1010.27 1010.87 1011.22 1011.94 1012.13 1012.51 1013.15 1013.95 1014.76 1015.29 1016.01 1016.60 1017.01 1017.39 1017.54 1017.70
1012.04 1012.09 1011.78 1011.42 1011.10 1011.23 1011.69 1012.23 1012.08 1011.56 1010.53 1009.06 1007.80 1005.01 1002.45 1001.77 1000.80 1001.02 1001.39 1001.91 1003.13 1004.63 1005.86 1006.94 1007.94 1008.75 1009.41 1009.85 1010.41 1011.11 1011.68 1012.28 1012.54 1013.04 1013.83 1014.42 1014.94 1015.55 1016.18 1016.58 1016.99 1017.38 1017.59 1017.85
1011.78 1011.41 1010.86 1010.81 1010.67 1011.01 1011.42 1011.23 1010.58 1011.24 1010.08 1008.89 1006.03 1003.26 1001.57 1000.67 1000.02 1000.12 1000.35 1001.70 1002.77 1003.97 1005.33 1006.86 1007.88 1008.65 1009.38 1010.02 1010.65 1011.21 1012.00 1012.61 1013.02 1013.58 1014.25 1014.90 1015.33 1015.81 1016.44 1016.87 1017.17 1017.53 1017.70 1017.81
1011.24 1011.14 1010.30 1010.18 1010.37 1010.35 1010.16 1010.28 1011.23 1011.24 1010.12 1007.62 1004.93 1003.27 1001.12 999.57 999.40 999.88 1000.61 1001.45 1002.90 1004.12 1005.39 1006.88 1007.87 1008.69 1009.53 1010.24 1010.92 1011.55 1012.38 1012.94 1013.53 1014.04 1014.55 1015.19 1015.68 1016.17 1016.70 1017.06 1017.45 1017.74 1017.86 1017.89
1010.16 1010.54 1010.43 1010.24 1009.34 1009.17 1010.08 1010.12 1009.72 1009.37 1008.72 1006.73 1004.62 1001.94 999.97 999.37 999.18 999.89 1000.99 1001.49 1002.47 1003.83 1005.20 1006.57 1007.80 1008.84 1009.70 1010.49 1011.15 1011.88 1012.72 1013.25 1014.00 1014.49 1014.97 1015.52 1016.11 1016.55 1017.02 1017.41 1017.69 1017.80 1017.92 1017.98
1009.10 1009.73 1009.38 1008.42 1007.49 1008.17 1008.65 1008.35 1008.79 1008.08 1007.71 1006.74 1005.10 1001.50 998.58 998.62 998.80 999.83 1000.91 1001.74 1002.91 1004.01 1005.19 1006.58 1007.71 1008.80 1009.82 1010.71 1011.43 1012.20 1013.00 1013.55 1014.28 1014.79 1015.30 1015.92 1016.41 1016.88 1017.35 1017.67 1017.75 1017.92 1017.94 1017.95
1008.36 1008.45 1008.09 1007.14 1007.27 1007.56 1006.81 1007.21 1007.42 1007.49 1007.23 1006.24 1005.27 1001.71 999.63 998.77 999.44 1000.23 1000.98 1002.21 1003.30 1004.47 1005.74 1006.86 1007.93 1008.82 1009.79 1010.79 1011.63 1012.45 1013.17 1013.86 1014.55 1015.13 1015.69 1016.34 1016.81 1017.21 1017.61 1017.73 1017.82 1017.85 1017.90 1018.01
1007.89 1007.44 1006.97 1005.91 1004.19 1004.06 1004.80 1005.53 1005.69 1006.20 1005.75 1005.02 1004.41 1003.25 1001.76 999.78 1000.01 1000.77 1001.64 1002.37 1003.33 1004.52 1005.64 1006.85 1008.01 1008.86 1009.81 1010.78 1011.68 1012.59 1013.43 1014.07 1014.83 1015.44 1016.04 1016.61 1017.04 1017.37 1017.58 1017.70 1017.82 1017.93 1018.04 1018.10
1007.28 1006.69 1005.74 1004.52 1003.92 1003.92 1003.27 1003.41 1003.97 1004.47 1004.56 1005.13 1003.77 1003.44 1001.03 999.61 999.99 1000.66 1001.59 1002.66 1003.73 1004.81 1005.82 1006.69 1007.70 1008.81 1009.91 1010.92 1011.83 1012.71 1013.60 1014.31 1014.94 1015.63 1016.23 1016.73 1017.09 1017.38 1017.59 1017.81 1017.98 1018.09 1018.17 1018.15
1006.59 1005.88 1004.90 1002.71 1001.09 1002.38 1001.95 1002.34 1002.94 1003.84 1004.84 1005.10 1004.96 1003.35 1000.47 1000.16 1000.40 1001.27 1001.85 1002.70 1003.71 1004.61 1005.57 1006.52 1007.55 1008.70 1009.79 1010.72 1011.82 1012.84 1013.79 1014.49 1015.01 1015.69 1016.34 1016.83 1017.16 1017.42 1017.75 1017.94 1018.06 1018.16 1018.21 1018.24
1005.85 1005.10 1004.15 1002.77 1001.61 1001.39 1001.34 1000.94 1001.79 1002.78 1003.97 1004.55 1004.67 1002.66 1000.15 1000.45 1000.90 1001.51 1002.07 1002.66 1003.31 1004.13 1005.08 1006.13 1007.18 1008.40 1009.61 1010.76 1011.73 1012.89 1013.80 1014.56 1015.23 1015.88 1016.48 1016.87 1017.18 1017.62 1017.87 1018.03 1018.10 1018.24 1018.42 1018.34
1004.68 1004.45 1003.39 1002.51 1001.74 1000.88 999.63 999.19 999.94 1001.28 1001.92 1002.80 1002.84 1000.54 1000.16 1000.53 1001.68 1002.24 1002.52 1002.69 1003.39 1004.17 1004.98 1006.13 1007.34 1008.69 1009.90 1010.94 1012.04 1013.02 1014.01 1014.79 1015.47 1016.11 1016.58 1016.99 1017.40 1017.75 1017.95 1018.09 1018.34 1018.45 1018.37 1018.36
1003.39 1003.67 1003.42 1002.97 1002.04 1000.47 999.17 999.12 999.85 1000.42 1000.37 1000.12 1000.34 1000.45 1000.70 1001.41 1002.05 1003.04 1003.27 1003.33 1003.85 1004.42 1005.36 1006.24 1007.43 1008.73 1010.10 1011.23 1012.26 1013.27 1014.39 1015.09 1015.73 1016.32 1016.78 1017.22 1017.50 1017.82 1018.07 1018.35 1018.51 1018.44 1018.47 1018.44
1003.23 1003.13 1003.49 1003.37 1002.52 1000.86 999.48 998.99 998.80 999.08 999.82 999.51 999.92 1000.54 1001.14 1002.05 1003.29 1004.00 1004.32 1004.42 1004.84 1005.50 1006.24 1007.22 1008.38 1009.47 1010.57 1011.85 1012.58 1013.64 1014.78 1015.44 1016.08 1016.51 1016.96 1017.28 1017.58 1017.88 1018.22 1018.42 1018.54 1018.50 1018.47 1018.44
1003.21 1003.15 1003.23 1003.14 1002.71 1000.74 999.28 998.71 998.73 999.32 1000.00 999.53 1000.03 1000.72 1001.41 1002.37 1003.18 1004.07 1005.13 1005.62 1005.96 1006.48 1007.30 1008.26 1009.20 1010.17 1011.28 1012.23 1013.09 1014.27 1015.13 1015.83 1016.23 1016.68 1017.10 1017.44 1017.71 1017.98 1018.20 1018.40 1018.49 1018.54 1018.55 1018.42
1002.46 1002.69 1002.85 1003.08 1002.65 1001.12 999.38 998.95 999.35 999.82 999.95 1000.42 1000.71 1001.22 1002.31 1003.28 1004.10 1005.11 1006.00 1006.66 1007.17 1007.73 1008.58 1009.25 1010.15 1011.42 1012.33 1012.92 1013.65 1014.81 1015.62 1016.16 1016.50 1016.88 1017.31 1017.72 1018.00 1018.13 1018.26 1018.48 1018.61 1018.61 1018.55 1018.24
1002.11 1001.54 1001.99 1002.16 1001.30 1000.39 999.97 999.85 999.88 1000.07 1000.56 1001.26 1001.70 1002.21 1002.86 1004.15 1005.23 1006.11 1007.09 1007.71 1008.35 1008.86 1009.60 1010.36 1011.11 1012.31 1013.18 1013.66 1014.19 1015.27 1016.09 1016.44 1016.84 1017.31 1017.77 1018.03 1018.11 1018.31 1018.55 1018.75 1018.71 1018.47 1018.19 1017.88
1001.61 1001.28 1001.42 1001.43 1000.50 1000.47 1000.41 1000.35 1000.51 1000.86 1001.34 1001.96 1002.62 1003.16 1003.67 1004.70 1006.05 1007.04 1007.87 1008.63 1009.29 1009.99 1010.66 1011.33 1012.12 1013.16 1014.05 1014.49 1015.00 1015.54 1016.21 1016.60 1017.18 1017.68 1018.02 1018.25 1018.48 1018.69 1018.74 1018.69 1018.49 1018.34 1018.05 1017.67
1001.16 1001.11 1001.11 1001.00 1000.63 1000.88 1000.87 1000.93 1001.30 1001.89 1002.33 1003.00 1003.69 1004.16 1004.85 1005.44 1006.88 1007.54 1008.51 1009.34 1010.09 1010.80 1011.51 1012.15 1012.94 1013.82 1014.66 1015.06 1015.60 1016.12 1016.55 1016.98 1017.53 1017.94 1018.26 1018.50 1018.66 1018.83 1018.77 1018.57 1018.36 1018.12 1017.71 1017.33
1000.56 1000.47 1000.78 1000.19 999.83 1000.10 1000.56 1001.14 1001.79 1002.35 1003.16 1003.77 1004.21 1005.31 1005.98 1006.24 1007.07 1008.17 1009.12 1009.83 1010.53 1011.38 1012.11 1012.90 1013.70 1014.41 1015.23 1015.67 1016.23 1016.69 1016.93 1017.26 1017.72 1018.17 1018.46 1018.67 1018.76 1018.74 1018.71 1018.58 1018.22 1017.85 1017.51 1017.13
Thickness
5552 5542 5552 5558 5561 5562 5564 5569 5574 5580 5589 5588 5603 5620 5632 5640 5648 5654 5661 5666 5670 5676 5683 5687 5693 5697 5698 5698 5698 5695 5695 5694 5694 5685 5678 5671 5665 5661 5658 5653 5648 5643 5639 5636
5535 5541 5552 5549 5547 5549 5551 5554 5566 5566 5572 5580 5587 5606 5621 5640 5654 5654 5661 5662 5665 5670 5672 5680 5685 5689 5690 5690 5688 5688 5687 5685 5683 5680 5672 5666 5659 5651 5647 5642 5635 5632 5629 5627
5531 5541 5543 5540 5537 5535 5541 5544 5544 5546 5555 5574 5576 5598 5609 5637 5646 5652 5662 5665 5665 5672 5670 5673 5676 5679 5681 5681 5681 5681 5679 5676 5674 5671 5664 5656 5649 5642 5635 5628 5624 5620 5618 5615
5522 5527 5530 5531 5527 5525 5532 5541 5539 5539 5536 5542 5563 5579 5604 5628 5639 5646 5659 5651 5660 5667 5670 5669 5670 5671 5675 5673 5672 5673 5671 5668 5665 5663 5656 5652 5645 5634 5624 5620 5615 5611 5608 5603
5515 5514 5513 5512 5525 5522 5525 5530 5530 5531 5531 5530 5553 5547 5607 5617 5631 5649 5665 5654 5662 5670 5670 5666 5665 5668 5667 5666 5665 5662 5662 5660 5655 5653 5649 5642 5632 5624 5616 5610 5605 5600 5595 5591
5506 5512 5512 5520 5522 5519 5518 5516 5517 5518 5524 5529 5569 5553 5599 5615 5637 5648 5659 5656 5662 5665 5663 5660 5656 5658 5656 5657 5655 5652 5652 5647 5645 5643 5638 5631 5623 5614 5607 5600 5593 5588 5584 5580
5484 5489 5496 5507 5508 5508 5503 5500 5493 5489 5501 5532 5570 5558 5592 5623 5637 5660 5667 5656 5660 5662 5658 5655 5651 5650 5647 5648 5645 5643 5642 5635 5635 5633 5628 5620 5613 5607 5600 5592 5586 5580 5574 5568
5486 5481 5483 5502 5507 5503 5501 5502 5495 5492 5492 5535 5564 5568 5601 5629 5647 5653 5658 5662 5657 5656 5654 5652 5648 5644 5642 5641 5638 5634 5631 5626 5627 5623 5616 5609 5604 5597 5590 5584 5577 5571 5565 5560
5474 5477 5493 5495 5501 5501 5488 5489 5522 5508 5526 5538 5563 5593 5617 5635 5642 5650 5662 5656 5658 5656 5652 5645 5641 5639 5637 5633 5629 5626 5621 5617 5616 5611 5604 5598 5593 5587 5579 5572 5567 5560 5556 5552
5475 5460 5491 5493 5492 5494 5496 5507 5485 5482 5508 5529 5563 5578 5609 5639 5645 5645 5649 5654 5653 5650 5645 5638 5637 5633 5629 5624 5620 5616 5612 5609 5604 5599 5594 5588 5582 5575 5568 5562 5556 5551 5546 5541
5482 5474 5480 5476 5480 5498 5487 5483 5500 5511 5520 5549 5566 5586 5622 5639 5646 5648 5647 5653 5652 5647 5641 5636 5631 5626 5619 5615 5613 5608 5602 5599 5593 5588 5583 5577 5570 5564 5557 5551 5546 5541 5536 5531
5492 5479 5477 5491 5509 5502 5495 5503 5505 5513 5525 5540 5551 5587 5641 5641 5649 5647 5645 5648 5644 5642 5637 5632 5627 5620 5614 5609 5605 5600 5594 5590 5583 5577 5573 5566 5559 5553 5547 5541 5537 5531 5527 5522
5500 5492 5497 5501 5496 5492 5502 5503 5514 5524 5529 5544 5552 5589 5626 5636 5638 5642 5643 5640 5638 5634 5629 5625 5619 5616 5610 5603 5597 5592 5586 5579 5573 5568 5562 5554 5549 5543 5537 5532 5527 5523 5517 5512
5497 5498 5506 5522 5540 5537 5525 5518 5527 5530 5541 5560 5556 5574 5598 5627 5636 5635 5635 5637 5635 5631 5627 5620 5614 5610 5604 5598 5591 5584 5576 5571 5564 5558 5551 5545 5539 5533 5528 5523 5518 5512 5506 5500
5497 5509 5512 5522 5525 5531 5551 5546 5543 5541 5552 5550 5574 5579 5614 5636 5638 5638 5636 5633 5630 5626 5621 5618 5613 5606 5597 5590 5583 5577 5568 5562 5556 5549 5542 5536 5530 5524 5518 5513 5507 5500 5494 5488
5504 5513 5522 5552 5567 5550 5562 5561 5559 5556 5541 5541 5552 5562 5627 5628 5631 5631 5633 5633 5629 5625 5622 5617 5611 5600 5592 5586 5577 5569 5560 5553 5548 5540 5533 5527 5521 5515 5508 5502 5495 5489 5482 5475
5518 5522 5538 5559 5569 5569 5566 5572 5568 5563 5552 5549 5553 5583 5627 5635 5636 5632 5630 5635 5631 5628 5623 5616 5609 5599 5590 5579 5572 5561 5553 5545 5538 5531 5524 5518 5512 5504 5497 5490 5485 5478 5469 5462
5537 5539 5555 5562 5568 5566 5590 5591 5585 5574 5575 5574 5584 5623 5632 5631 5615 5618 5625 5632 5629 5626 5620 5612 5603 5591 5580 5570 5561 5552 5543 5536 5528 5521 5515 5508 5500 5493 5486 5480 5472 5465 5457 5449
5556 5555 5552 5556 5559 5581 5598 5594 5588 5588 5596 5606 5614 5617 5618 5616 5622 5617 5609 5622 5621 5618 5613 5606 5595 5581 5570 5561 5552 5543 5533 5526 5518 5511 5504 5497 5490 5483 5475 5467 5459 5453 5444 5435
5555 5562 5558 5530 5555 5576 5596 5603 5606 5610 5596 5615 5616 5612 5614 5614 5610 5611 5598 5601 5598 5596 5594 5585 5576 5568 5560 5549 5543 5534 5522 5514 5508 5501 5494 5487 5479 5472 5464 5455 5447 5440 5432 5424
5559 5561 5555 5555 5561 5573 5597 5606 5609 5602 5602 5616 5617 5614 5615 5615 5608 5595 5585 5583 5585 5583 5577 5570 5565 5558 5547 5539 5532 5521 5512 5505 5498 5491 5483 5475 5468 5460 5452 5443 5435 5427 5419 5411
5568 5564 5565 5560 5557 5558 5598 5607 5607 5603 5604 5601 5603 5603 5591 5588 5586 5580 5576 5573 5571 5567 5562 5558 5551 5539 5531 5526 5521 5509 5500 5492 5486 5479 5471 5463 5455 5448 5440 5430 5422 5415 5408 5401
5567 5575 5568 5567 5572 5586 5591 5597 5600 5599 5598 5595 5586 5588 5587 5579 5574 5570 5562 5560 5556 5553 5548 5543 5537 5525 5517 5512 5508 5496 5486 5481 5474 5466 5457 5449 5443 5434 5426 5418 5412 5405 5398 5390
5568 5572 5573 5579 5588 5590 5591 5594 5595 5597 5590 5583 5581 5581 5581 5571 5563 5556 5551 5547 5544 5539 5534 5529 5522 5513 5503 5498 5492 5485 5477 5470 5461 5452 5444 5437 5429 5422 5414 5408 5403 5394 5386 5377
5567 5570 5573 5575 5583 5584 5587 5591 5584 5577 5577 5573 5569 5570 5567 5564 5553 5550 5543 5537 5532 5526 5520 5515 5508 5500 5490 5484 5478 5472 5465 5458 5449 5440 5432 5425 5418 5411 5404 5398 5391 5383 5374 5365
5566 5574 5575 5580 5591 5593 5591 5580 5576 5576 5570 5567 5566 5557 5553 5556 5549 5541 5534 5529 5524 5516 5510 5503 5494 5488 5478 5473 5466 5459 5453 5446 5438 5429 5422 5415 5408 5401 5394 5386 5378 5370 5362 5351